Sexton Summit, OR

11:38 PM PST on December 16, 2017 (GMT -0800)
Sexton Summit

Weather History for KSXT - January, 2013

Change the Weather History Date:

Wednesday, January 9, 2013

  Actual Average Record
Temperature  
Mean Temperature 34 °F -  
Max Temperature 43 °F 40 °F 57 °F (1999)
Min Temperature 24 °F 31 °F 0 °F (2014)
Degree Days  
Heating Degree Days 32    
Moisture  
Dew Point 29 °F    
Average Humidity 95    
Maximum Humidity 100    
Minimum Humidity 65    
Precipitation  
Precipitation 0.02 in - - ()
Sea Level Pressure  
Sea Level Pressure 29.91 in    
Wind  
Wind Speed 11 mph (SW)    
Max Wind Speed 24 mph    
Max Gust Speed 36 mph    
Visibility 3 miles    
Events Fog , Rain , Snow    
Averages and records for this station are not official NWS values.
T = Trace of Precipitation, MM = Missing Value Source: NWS Daily Summary

Daily Weather History Graph

Daily Weather History Graph

Search for Another Location

Airport or City:

Trip Planner

Search our weather history database for the weather conditions in past years. The results will help you decide how hot, cold, wet, or windy it might be!

Date:

Astronomy

Jan. 09, 2013 Rise Set
Actual Time 7:42 AM PST 4:59 PM PST
Civil Twilight 7:11 AM PST 5:30 PM PST
Nautical Twilight 6:36 AM PST 6:05 PM PST
Astronomical Twilight 6:02 AM PST 6:39 PM PST
Moon 5:28 AM PST (1/9) 3:06 PM PST (1/9)
Length of Visible Light 10h 19m
Length of Day
9h 16m
Waning Crescent, 6% of the Moon is Illuminated
Jan 9
Waning Crescent
Jan 11
New
Jan 18
First Quarter
Jan 26
Full
Feb 3
Last Quarter

Hourly Weather History & Observations

Time (PST) Temp. Windchill Dew Point Humidity Pressure Visibility Wind Dir Wind Speed Gust Speed Precip Events Conditions
12:56 AM 43.0 °F 35.4 °F 32.0 °F 65% 29.96 in 10.0 mi South 16.1 mph 24.2 mph N/A   Clear
1:56 AM 39.9 °F 31.8 °F 32.0 °F 73% 29.95 in 10.0 mi SSW 15.0 mph 23.0 mph N/A   Partly Cloudy
2:56 AM 36.0 °F 26.3 °F 34.0 °F 93% 29.95 in 10.0 mi SSW 16.1 mph 27.6 mph N/A   Overcast
3:07 AM 35.6 °F 25.9 °F 33.8 °F 93% 29.93 in 1.0 mi South 16.1 mph 25.3 mph N/A   Overcast
3:13 AM 35.6 °F 25.9 °F 33.8 °F 93% 29.93 in 0.2 mi SSW 16.1 mph 25.3 mph N/A Fog Fog
3:45 AM 35.6 °F 24.2 °F 33.8 °F 93% 29.93 in 0.5 mi SSW 21.9 mph 34.5 mph N/A Fog Fog
3:53 AM 35.6 °F 25.2 °F 33.8 °F 93% 29.92 in 1.5 mi SSW 18.4 mph 29.9 mph N/A   Overcast
3:56 AM 35.1 °F 24.5 °F 34.0 °F 96% 29.95 in 4.0 mi SSW 18.4 mph 27.6 mph N/A   Overcast
4:07 AM 35.6 °F 24.5 °F 33.8 °F 93% 29.92 in 2.5 mi SSW 20.7 mph 33.4 mph N/A   Overcast
4:25 AM 35.6 °F 24.2 °F 33.8 °F 93% 29.90 in 3.0 mi South 21.9 mph 35.7 mph N/A   Overcast
4:31 AM 35.6 °F 23.7 °F 33.8 °F 93% 29.90 in 1.8 mi South 24.2 mph 35.7 mph N/A   Overcast
4:37 AM 35.6 °F 24.5 °F 35.6 °F 100% 29.90 in 0.8 mi South 20.7 mph 35.7 mph N/A   Overcast
4:47 AM 35.6 °F 24.0 °F 35.6 °F 100% 29.89 in 0.2 mi South 23.0 mph 34.5 mph N/A Fog Fog
4:56 AM 36.0 °F 25.6 °F 35.1 °F 97% 29.93 in 0.2 mi SSW 18.4 mph 34.5 mph N/A Fog Fog
5:47 AM 35.6 °F 24.8 °F 33.8 °F 93% 29.88 in 0.5 mi South 19.6 mph 31.1 mph N/A Fog Fog
5:56 AM 35.1 °F 24.1 °F 34.0 °F 96% 29.91 in 0.8 mi SSW 19.6 mph 35.7 mph N/A   Overcast
5:59 AM 35.6 °F 24.2 °F 33.8 °F 93% 29.88 in 1.8 mi SSW 21.9 mph 35.7 mph N/A   Overcast
6:01 AM 35.6 °F 24.8 °F 33.8 °F 93% 29.88 in 4.0 mi SSW 19.6 mph 35.7 mph N/A   Overcast
6:08 AM 35.6 °F 24.5 °F 33.8 °F 93% 29.87 in 10.0 mi South 20.7 mph 34.5 mph N/A   Overcast
6:29 AM 35.6 °F 24.5 °F 33.8 °F 93% 29.86 in 10.0 mi South 20.7 mph 33.4 mph N/A   Overcast
6:56 AM 35.1 °F 24.8 °F 34.0 °F 96% 29.88 in 10.0 mi South 17.3 mph 31.1 mph N/A   Overcast
7:33 AM 35.6 °F 26.6 °F 33.8 °F 93% 29.85 in 1.5 mi SSW 13.8 mph 25.3 mph 0.00 in Rain Light Rain
7:35 AM 35.6 °F 26.2 °F 33.8 °F 93% 29.85 in 0.8 mi SSW 15.0 mph 26.5 mph 0.00 in Rain Light Rain
7:45 AM 35.6 °F 25.2 °F 35.6 °F 100% 29.85 in 0.2 mi SSW 18.4 mph 27.6 mph 0.00 in Fog , Rain Light Rain
7:56 AM 36.0 °F 26.3 °F 35.1 °F 97% 29.88 in 0.2 mi SSW 16.1 mph 28.8 mph 0.00 in Fog , Rain Light Rain
8:43 AM 33.8 °F 29.6 °F 33.8 °F 100% 29.89 in 0.2 mi Variable 4.6 mph - 0.02 in Fog , Rain Light Rain
8:56 AM 34.0 °F 31.0 °F 33.1 °F 96% 29.92 in 0.2 mi Variable 3.5 mph - 0.02 in Fog , Rain Light Rain
9:24 AM 33.8 °F 30.8 °F 32.0 °F 93% 29.89 in 1.5 mi Variable 3.5 mph - 0.00 in   Overcast
9:29 AM 33.8 °F 27.7 °F 32.0 °F 93% 29.90 in 0.8 mi Variable 6.9 mph - 0.00 in   Overcast
9:34 AM 33.8 °F 28.6 °F 32.0 °F 93% 29.90 in 0.2 mi Variable 5.8 mph - 0.00 in Fog , Snow Light Snow
9:48 AM 33.8 °F 30.8 °F 32.0 °F 93% 29.91 in 0.2 mi Variable 3.5 mph - 0.00 in Fog Fog
9:56 AM 32.0 °F 26.4 °F 32.0 °F 100% 29.95 in 0.2 mi Variable 5.8 mph - 0.00 in Fog , Snow Light Snow
10:44 AM 30.2 °F 24.3 °F 30.2 °F 100% 29.91 in 0.2 mi Variable 5.8 mph 19.6 mph 0.00 in Fog , Snow Light Snow
10:47 AM 32.0 °F 28.7 °F 30.2 °F 93% 29.91 in 0.5 mi Variable 3.5 mph 19.6 mph 0.00 in Fog , Snow Light Snow
10:56 AM 32.0 °F 26.4 °F 30.9 °F 96% 29.95 in 0.5 mi Variable 5.8 mph - 0.00 in Fog , Snow Light Snow
11:05 AM 30.2 °F 23.4 °F 30.2 °F 100% 29.91 in 0.8 mi Variable 6.9 mph - N/A Snow Light Snow
11:08 AM 30.2 °F 23.4 °F 30.2 °F 100% 29.91 in 1.0 mi Variable 6.9 mph - N/A Snow Light Snow
11:12 AM 30.2 °F 25.4 °F 30.2 °F 100% 29.90 in 0.8 mi Variable 4.6 mph - 0.00 in Snow Light Snow
11:24 AM 30.2 °F 25.4 °F 30.2 °F 100% 29.90 in 0.2 mi Variable 4.6 mph - 0.00 in Fog , Snow Light Snow
11:32 AM 30.2 °F 24.3 °F 30.2 °F 100% 29.90 in 0.2 mi Variable 5.8 mph - 0.00 in Fog , Snow Light Snow
11:41 AM 30.2 °F 26.7 °F 30.2 °F 100% 29.90 in 0.2 mi Variable 3.5 mph - 0.00 in Fog , Snow Snow
11:56 AM 30.9 °F 24.3 °F 30.0 °F 96% 29.94 in 0.2 mi Variable 6.9 mph - 0.00 in Fog , Snow Snow
11:59 AM 30.2 °F 23.4 °F 30.2 °F 100% 29.90 in 0.5 mi Variable 6.9 mph - N/A Fog , Snow Light Snow
12:19 PM 30.2 °F 24.3 °F 30.2 °F 100% 29.89 in 1.0 mi Variable 5.8 mph - 0.00 in Snow Light Snow
12:26 PM 30.2 °F 24.3 °F 28.4 °F 93% 29.89 in 1.0 mi Variable 5.8 mph - 0.00 in Snow Light Snow
12:33 PM 30.2 °F 24.3 °F 28.4 °F 93% 29.89 in 0.5 mi NW 5.8 mph - 0.00 in Fog , Snow Light Snow
12:42 PM 30.2 °F 24.3 °F 30.2 °F 100% 29.89 in 0.8 mi NNW 5.8 mph - 0.00 in Snow Light Snow
12:47 PM 30.2 °F 21.9 °F 28.4 °F 93% 29.89 in 1.5 mi NNW 9.2 mph - 0.00 in   Overcast
12:56 PM 30.0 °F 24.1 °F 28.9 °F 96% 29.93 in 0.8 mi Variable 5.8 mph - 0.00 in   Overcast
1:13 PM 30.2 °F - 30.2 °F 100% 29.89 in 0.8 mi Calm Calm - N/A   Overcast
1:23 PM 30.2 °F 26.7 °F 30.2 °F 100% 29.89 in 1.2 mi Variable 3.5 mph - N/A   Overcast
1:37 PM 30.2 °F - 28.4 °F 93% 29.89 in 0.5 mi Calm Calm - N/A Fog Light Freezing Fog
1:51 PM 30.2 °F 26.7 °F 28.4 °F 93% 29.89 in 0.2 mi Variable 3.5 mph - 0.00 in Fog , Snow Light Snow
1:56 PM 30.0 °F 26.5 °F 28.9 °F 96% 29.94 in 0.2 mi Variable 3.5 mph - 0.00 in Fog , Snow Light Snow
2:23 PM 30.2 °F 26.7 °F 28.4 °F 93% 29.88 in 1.0 mi Variable 3.5 mph - 0.00 in   Overcast
2:25 PM 28.4 °F - 28.4 °F 100% 29.88 in 2.0 mi Calm Calm - 0.00 in   Overcast
2:30 PM 30.2 °F 26.7 °F 28.4 °F 93% 29.89 in 1.2 mi Variable 3.5 mph - 0.00 in   Overcast
2:44 PM 28.4 °F 24.6 °F 28.4 °F 100% 29.89 in 0.8 mi Variable 3.5 mph - 0.00 in   Overcast
2:56 PM 28.9 °F - 28.0 °F 96% 29.96 in 1.5 mi Calm Calm - 0.00 in   Overcast
3:03 PM 28.4 °F 23.3 °F 26.6 °F 93% 29.89 in 3.0 mi Variable 4.6 mph - 0.00 in   Mostly Cloudy
3:19 PM 28.4 °F 24.6 °F 26.6 °F 93% 29.89 in 5.0 mi Variable 3.5 mph - 0.00 in   Mostly Cloudy
3:26 PM 28.4 °F 22.2 °F 26.6 °F 93% 29.89 in 1.8 mi Variable 5.8 mph - 0.00 in Snow Light Snow
3:38 PM 28.4 °F 21.2 °F 26.6 °F 93% 29.89 in 3.0 mi Variable 6.9 mph - 0.00 in   Overcast
3:46 PM 28.4 °F 22.2 °F 26.6 °F 93% 29.88 in 10.0 mi Variable 5.8 mph - 0.00 in   Overcast
3:56 PM 28.0 °F 24.2 °F 27.0 °F 96% 29.96 in 10.0 mi Variable 3.5 mph - 0.00 in   Overcast
4:05 PM 26.6 °F 21.2 °F 24.8 °F 93% 29.89 in 10.0 mi NNW 4.6 mph - 0.00 in   Mostly Cloudy
4:53 PM 26.6 °F - 24.8 °F 93% 29.89 in 10.0 mi Calm Calm - 0.00 in   Mostly Cloudy
4:56 PM 27.0 °F 21.6 °F 25.0 °F 92% 29.96 in 10.0 mi Variable 4.6 mph - 0.00 in   Mostly Cloudy
5:05 PM 26.6 °F 20.0 °F 24.8 °F 93% 29.89 in 10.0 mi NNW 5.8 mph - N/A   Mostly Cloudy
5:29 PM 26.6 °F 21.2 °F 24.8 °F 93% 29.88 in 10.0 mi Variable 4.6 mph - N/A   Mostly Cloudy
5:56 PM 26.1 °F 18.4 °F 24.1 °F 92% 29.96 in 10.0 mi NW 6.9 mph - N/A   Scattered Clouds
6:56 PM 26.1 °F 21.9 °F 24.1 °F 92% 29.96 in 10.0 mi NW 3.5 mph - N/A   Overcast
7:04 PM 26.6 °F 20.0 °F 24.8 °F 93% 29.88 in 10.0 mi NW 5.8 mph - N/A   Overcast
7:56 PM 25.0 °F 20.7 °F 24.1 °F 96% 29.96 in 4.0 mi Variable 3.5 mph - 0.00 in Snow Light Snow
8:18 PM 24.8 °F - 24.8 °F 100% 29.89 in 10.0 mi Calm Calm - N/A   Mostly Cloudy
8:32 PM 26.6 °F 21.2 °F 24.8 °F 93% 29.89 in 4.0 mi Variable 4.6 mph - N/A   Mostly Cloudy
8:53 PM 24.8 °F 19.1 °F 24.8 °F 100% 29.89 in 2.5 mi Variable 4.6 mph - 0.00 in Snow Light Snow
8:56 PM 26.1 °F 20.5 °F 24.1 °F 92% 29.97 in 1.8 mi Variable 4.6 mph - 0.00 in Snow Light Snow
9:06 PM 26.6 °F - 24.8 °F 93% 29.89 in 1.2 mi Calm Calm - 0.00 in Snow Light Snow
9:10 PM 26.6 °F - 24.8 °F 93% 29.89 in 2.0 mi Calm Calm - 0.00 in Snow Light Snow
9:25 PM 26.6 °F - 24.8 °F 93% 29.89 in 1.2 mi Calm Calm - 0.00 in Snow Light Snow
9:45 PM 26.6 °F - 24.8 °F 93% 29.89 in 2.0 mi Calm Calm - 0.00 in   Overcast
9:56 PM 26.1 °F - 24.1 °F 92% 29.98 in 10.0 mi Calm Calm - 0.00 in   Overcast
10:10 PM 26.6 °F - 24.8 °F 93% 29.89 in 2.5 mi Calm Calm - 0.00 in   Overcast
10:17 PM 26.6 °F - 24.8 °F 93% 29.89 in 1.2 mi Calm Calm - 0.00 in Snow Light Snow
10:25 PM 26.6 °F - 24.8 °F 93% 29.89 in 0.8 mi Calm Calm - 0.00 in Snow Light Snow
10:42 PM 24.8 °F - 24.8 °F 100% 29.90 in 1.5 mi Calm Calm - 0.00 in Snow Light Snow
10:56 PM 25.0 °F 20.7 °F 24.1 °F 96% 29.99 in 1.0 mi Variable 3.5 mph - 0.00 in Snow Light Snow
11:03 PM 24.8 °F - 24.8 °F 100% 29.90 in 0.8 mi Calm Calm - 0.00 in Snow Light Snow
11:13 PM 24.8 °F - 24.8 °F 100% 29.89 in 1.8 mi Calm Calm - 0.00 in Snow Light Snow
11:15 PM 24.8 °F - 24.8 °F 100% 29.89 in 2.5 mi Calm Calm - 0.00 in Snow Light Snow
11:22 PM 24.8 °F 19.1 °F 24.8 °F 100% 29.90 in 5.0 mi Variable 4.6 mph - 0.00 in   Overcast
11:49 PM 24.8 °F 20.5 °F 24.8 °F 100% 29.90 in 1.8 mi Variable 3.5 mph - 0.00 in   Overcast
11:56 PM 25.0 °F - 24.1 °F 96% 29.99 in 2.0 mi Calm Calm - 0.00 in   Overcast